Погода в Фунафути

Тувалу     8°30′48″S   179°11′32″E
темп.,
°C
ветер,
м/с
пор.,
м/с
влажн.,
%
обл.,
%
осадки,
мм/ч
давл.,
гПа
погр.,
м
10 августа, ср
ср1000:00+28в56690 0.0 10111100
03:00+28в556526 0.1 10101305
06:00+28в556637 0.1 10111280
09:00+28всв556415 0.0 10121251
12:00+28всв66655 0.0 10111030
15:00+28всв55635 0.0 1008928
18:00+28в44656 0.0 1010930
21:00+28в446722 0.0 1011937
11 августа, чт
чт1100:00+27всв44681 0.0 1011996
03:00+27в34695 0.0 1010939
06:00+27вюв33685 0.0 1011856
09:00+27вюв33705 0.0 1013732
12:00+27юв337110 0.0 1011766
15:00+27юв337226 0.0 1009787
18:00+27юв337323 0.0 1010782
21:00+27вюв44685 0.0 1012870
12 августа, пт
пт1200:00+27в45655 0.0 1012939
03:00+27вюв447278 0.0 1010902
06:00+27вюв457415 0.0 1011849
09:00+27вюв567511 0.0 1013846
12:00+28вюв567633 0.2 1011899
15:00+28в667023 0.2 10091072
18:00+28в77665 0.2 1010998
21:00+28в77685 0.0 10121027
13 августа, сб
сб1300:00+28в77704 0.0 10111126
03:00+27в67715 0.0 10101081
06:00+28в6771100 0.0 1011888
09:00+28в677322 0.0 10131003
12:00+28в67725 0.0 1011998
15:00+28в66745 0.0 1010923
18:00+28вюв667410 0.0 1010909
21:00+28в66736 0.0 1012848
14 августа, вс
вс1400:00+28вюв67710 0.1 1011937
03:00+28вюв66660 0.0 1010883
06:00+28вюв67705 0.0 1011911
09:00+28в78755 0.3 1012952
12:00+28в77724 0.5 1011978
15:00+28в56680 0.0 1009970
18:00+28в67759 0.1 1009884
21:00+28в787614 0.0 1011950